New York, NY

3:17 PM EST on January 24, 2017 (GMT -0500)
Central Park

Weather History for KNYC - March, 2013

Change the Weather History Date:

Tuesday, March 12, 2013

  Actual Average Record
Temperature  
Mean Temperature 50 °F 41 °F  
Max Temperature 57 °F 48 °F 71 °F (1890)
Min Temperature 43 °F 34 °F 8 °F (1888)
Degree Days  
Heating Degree Days 15 24  
Month to date heating degree days 295 306  
Since 1 July heating degree days 3668 3828  
Cooling Degree Days 0 0  
Month to date cooling degree days 0 0  
Year to date cooling degree days 0 0  
Growing Degree Days 2 (Base 50)    
Moisture  
Dew Point 47 °F    
Average Humidity 81    
Maximum Humidity 96    
Minimum Humidity 65    
Precipitation  
Precipitation 0.79 in 0.13 in 2.33 in (1962)
Month to date precipitation 1.52 1.55  
Year to date precipitation 8.53 8.29  
Snow  
Snow 0.00 in 0.10 in 16.50 in (1888)
Month to date snowfall 4.0 2.2  
Since 1 July snowfall 22.8 23.5  
Snow Depth 0.00 in    
Sea Level Pressure  
Sea Level Pressure 29.86 in    
Wind  
Wind Speed 8 mph (SSW)    
Max Wind Speed 20 mph    
Max Gust Speed 37 mph    
Visibility 6 miles    
Events Rain    
T = Trace of Precipitation, MM = Missing Value Source: NWS Daily Summary

Daily Weather History Graph

Daily Weather History Graph

Search for Another Location

Airport or City:

Trip Planner

Search our weather history database for the weather conditions in past years. The results will help you decide how hot, cold, wet, or windy it might be!

Date:

Astronomy

Mar. 12, 2013 Rise Set
Actual Time 7:12 AM EDT 6:59 PM EDT
Civil Twilight 6:44 AM EDT 7:26 PM EDT
Nautical Twilight 6:13 AM EDT 7:58 PM EDT
Astronomical Twilight 5:41 AM EDT 8:30 PM EDT
Moon 7:16 AM EDT (3/12) 8:12 PM EDT (3/12)
Length of Visible Light 12h 42m
Length of Day
11h 47m
New Moon, 1% of the Moon is Illuminated
Mar 12
New Moon
Mar 19
First Quarter
Mar 27
Full
Apr 3
Last Quarter
Apr 10
New

Hourly Weather History & Observations

Time (EDT) Temp. Windchill Dew Point Humidity Pressure Visibility Wind Dir Wind Speed Gust Speed Precip Events Conditions
12:51 AM 50.0 °F - 46.0 °F 86% 30.07 in 10.0 mi Variable 4.6 mph 18.4 mph N/A   Mostly Cloudy
12:58 AM 50.0 °F - 46.0 °F 86% 30.09 in 10.0 mi South 5.8 mph - N/A   Mostly Cloudy
1:09 AM 50.0 °F - 46.0 °F 86% 30.09 in 10.0 mi South 9.2 mph 18.4 mph N/A   Scattered Clouds
1:18 AM 50.0 °F - 46.0 °F 86% 30.08 in 10.0 mi South 5.8 mph - N/A   Mostly Cloudy
1:41 AM 50.0 °F - 46.0 °F 86% 30.06 in 10.0 mi South 9.2 mph 17.3 mph N/A   Mostly Cloudy
1:51 AM 50.0 °F - 46.0 °F 86% 30.03 in 10.0 mi South 12.7 mph 18.4 mph N/A   Overcast
2:33 AM 50.0 °F - 46.0 °F 86% 30.05 in 10.0 mi South 8.1 mph - N/A   Scattered Clouds
2:51 AM 48.9 °F - 45.0 °F 86% 30.01 in 10.0 mi South 11.5 mph 19.6 mph N/A   Scattered Clouds
3:51 AM 50.0 °F - 45.0 °F 83% 30.00 in 10.0 mi South 5.8 mph 23.0 mph N/A   Scattered Clouds
4:51 AM 50.0 °F - 45.0 °F 83% 29.98 in 10.0 mi South 4.6 mph - N/A   Overcast
5:51 AM 48.9 °F - 46.0 °F 90% 29.96 in 8.0 mi SSE 5.8 mph 16.1 mph 0.02 in Rain Light Rain
6:51 AM 48.0 °F - 45.0 °F 89% 29.96 in 6.0 mi North - - 0.02 in Rain Light Rain
7:51 AM 48.9 °F - 46.0 °F 90% 29.95 in 5.0 mi South 8.1 mph 19.6 mph 0.04 in Rain Light Rain
8:51 AM 50.0 °F - 46.9 °F 89% 29.94 in 6.0 mi South 6.9 mph 19.6 mph 0.02 in Rain Light Rain
9:51 AM 50.0 °F - 46.9 °F 89% 29.93 in 5.0 mi South 11.5 mph 25.3 mph 0.02 in Rain Light Rain
10:07 AM 50.0 °F - 46.9 °F 89% 29.93 in 4.0 mi South 11.5 mph 19.6 mph 0.01 in Rain Light Rain
10:35 AM 50.0 °F - 48.0 °F 93% 29.92 in 4.0 mi Variable 6.9 mph 20.7 mph 0.03 in Rain Light Rain
10:44 AM 50.0 °F - 48.0 °F 93% 29.92 in 4.0 mi Variable 5.8 mph 18.4 mph 0.04 in Rain Light Rain
10:51 AM 50.0 °F - 48.0 °F 93% 29.90 in 3.0 mi South 9.2 mph 21.9 mph 0.05 in Rain Light Rain
11:11 AM 50.0 °F - 48.0 °F 93% 29.92 in 2.5 mi South 13.8 mph 24.2 mph 0.04 in Rain Light Rain
11:31 AM 50.0 °F - 48.0 °F 93% 29.90 in 1.8 mi Variable 5.8 mph 25.3 mph 0.07 in Rain Light Rain
11:39 AM 50.0 °F - 48.0 °F 93% 29.90 in 2.0 mi South 11.5 mph 19.6 mph 0.09 in Rain Light Rain
11:51 AM 50.0 °F - 48.0 °F 93% 29.86 in 3.0 mi South 8.1 mph 21.9 mph 0.11 in Rain Light Rain
12:51 PM 51.1 °F - 48.9 °F 92% 29.83 in 3.0 mi Variable 6.9 mph 21.9 mph 0.06 in Rain Light Rain
1:12 PM 52.0 °F - 48.9 °F 89% 29.84 in 2.5 mi SSW 13.8 mph 27.6 mph 0.03 in Rain Light Rain
1:36 PM 51.1 °F - 48.9 °F 92% 29.82 in 3.0 mi South 12.7 mph 28.8 mph 0.07 in Rain Light Rain
1:46 PM 51.8 °F - 48.2 °F 88% 29.81 in 2.0 mi South 10.4 mph 25.3 mph 0.09 in Rain Rain
1:51 PM 51.1 °F - 48.9 °F 92% 29.78 in 2.0 mi South 16.1 mph 26.5 mph 0.09 in Rain Light Rain
2:17 PM 51.1 °F - 48.9 °F 92% 29.79 in 2.5 mi South 13.8 mph 31.1 mph 0.08 in Rain Light Rain
2:27 PM 51.1 °F - 48.9 °F 92% 29.77 in 3.0 mi South 9.2 mph 33.4 mph 0.09 in Rain Light Rain
2:37 PM 51.1 °F - 48.9 °F 92% 29.76 in 2.5 mi North - - 0.11 in Rain Rain
2:47 PM 51.8 °F - 48.2 °F 88% 29.75 in 4.0 mi North - - 0.12 in Rain Light Rain
3:20 PM 52.0 °F - 50.0 °F 93% 29.73 in 1.8 mi South 15.0 mph 29.9 mph 0.03 in Rain Rain
3:51 PM 52.0 °F - 50.0 °F 93% 29.70 in 1.8 mi SSW 10.4 mph 24.2 mph 0.14 in Rain Rain
4:09 PM 51.1 °F - 48.9 °F 92% 29.71 in 3.0 mi South 13.8 mph 27.6 mph 0.08 in Rain Light Rain
4:51 PM 53.1 °F - 51.1 °F 93% 29.68 in 7.0 mi South 9.2 mph 21.9 mph 0.09 in   Overcast
5:12 PM 53.1 °F - 51.1 °F 93% 29.70 in 3.0 mi Variable 5.8 mph - N/A   Overcast
5:38 PM 54.0 °F - 52.0 °F 93% 29.70 in 2.0 mi Variable 5.8 mph - 0.01 in Rain Light Rain
5:51 PM 55.0 °F - 53.1 °F 93% 29.68 in 4.0 mi Variable 3.5 mph - 0.01 in   Overcast
6:17 PM 55.9 °F - 53.1 °F 90% 29.72 in 10.0 mi Variable 4.6 mph - N/A   Overcast
6:37 PM 55.9 °F - 54.0 °F 93% 29.73 in 10.0 mi WSW 4.6 mph - N/A   Overcast
6:51 PM 57.0 °F - 53.1 °F 87% 29.73 in 9.0 mi West 5.8 mph - 0.00 in Rain Light Rain
7:03 PM 55.9 °F - 52.0 °F 87% 29.76 in 7.0 mi WNW 10.4 mph 19.6 mph 0.00 in   Overcast
7:51 PM 53.1 °F - 45.0 °F 74% 29.77 in 10.0 mi WNW 4.6 mph - 0.00 in   Overcast
8:05 PM 52.0 °F - 45.0 °F 77% 29.80 in 10.0 mi NW 5.8 mph - N/A   Overcast
8:51 PM 50.0 °F - 39.9 °F 68% 29.81 in 10.0 mi NW 9.2 mph 16.1 mph N/A   Overcast
9:51 PM 46.9 °F - 37.9 °F 71% 29.82 in 10.0 mi North - - N/A   Mostly Cloudy
10:51 PM 46.0 °F 41.4 °F 35.1 °F 66% 29.83 in 10.0 mi WNW 9.2 mph 21.9 mph N/A   Clear
11:51 PM 44.1 °F 40.1 °F 35.1 °F 71% 29.83 in 10.0 mi NW 6.9 mph - N/A   Clear